EW7070 Weather Reports


time (UTC)temp
C
wind
direction
speed
KPH
gust
KPH
rain 1hr
cm
rain 24hr
cm
rain mn
cm
humidity
%
barometer
mb
20260905130420 14 210 0.0 4.8 0.00 0.00 0.00 91 1018.6
20260905125920 14 267 1.6 6.4 0.00 0.00 0.00 92 1018.5
20260905125408 14 114 1.6 6.4 0.00 0.00 0.00 94 1018.4
20260905125138 13 212 1.6 6.4 0.00 0.00 0.00 94 1018.5
20260905124408 13 217 1.6 6.4 0.00 0.00 0.00 95 1018.5
20260905123853 13 125 0.0 4.8 0.00 0.00 0.00 95 1018.4
20260905123352 13 219 0.0 4.8 0.00 0.00 0.00 96 1018.5
20260905123124 13 220 1.6 4.8 0.00 0.00 0.00 96 1018.6
20260905122325 12 279 1.6 4.8 0.00 0.00 0.00 97 1018.4
20260905121822 12 267 1.6 4.8 0.00 0.00 0.00 97 1018.5
20260905121319 12 295 1.6 6.4 0.00 0.00 0.00 98 1018.4
20260905120800 12 332 1.6 6.4 0.00 0.00 0.00 98 1018.5
20260905120234 12 311 1.6 6.4 0.00 0.00 0.00 98 1018.6
20260905115708 12 304 1.6 4.8 0.00 0.00 0.00 98 1018.4
20260905115140 12 310 1.6 3.2 0.00 0.00 0.00 98 1018.4
20260905114845 12 345 1.6 4.8 0.00 0.00 0.00 98 1018.2
20260905114109 12 343 1.6 4.8 0.00 0.00 0.00 98 1018.1
20260905113606 12 336 1.6 4.8 0.00 0.00 0.00 98 1018.3
20260905113103 12 322 1.6 6.4 0.00 0.00 0.00 98 1018.1
20260905112548 12 331 1.6 6.4 0.00 0.00 0.00 98 1018.1
20260905112045 12 0 0.0 3.2 0.00 0.00 0.00 98 1018.1
20260905111542 11 295 0.0 1.6 0.00 0.00 0.00 98 1018.0
20260905111014 11 244 0.0 3.2 0.00 0.00 0.00 98 1017.9
20260905110512 11 287 0.0 3.2 0.00 0.00 0.00 98 1017.9
20260905110007 11 264 0.0 1.6 0.00 0.00 0.00 98 1017.8
20260905105503 11 231 0.0 1.6 0.00 0.00 0.00 98 1017.6
20260905105230 11 231 0.0 3.2 0.00 0.00 0.00 98 1017.5
20260905104451 11 240 0.0 3.2 0.00 0.00 0.00 98 1017.6
20260905103949 11 303 0.0 3.2 0.00 0.00 0.00 98 1017.5
20260905103438 11 303 0.0 3.2 0.00 0.00 0.00 98 1017.3
20260905102936 11 303 0.0 3.2 0.00 0.00 0.00 98 1017.4
20260905102437 11 303 0.0 3.2 0.00 0.00 0.00 98 1017.4
20260905101939 11 299 0.0 3.2 0.00 0.00 0.00 98 1017.3
20260905101409 11 299 0.0 3.2 0.00 0.00 0.00 98 1017.3
20260905100907 11 343 0.0 1.6 0.00 0.00 0.00 98 1017.3
20260905100402 10 120 0.0 0.0 0.00 0.00 0.00 98 1017.3
20260905095859 10 120 0.0 0.0 0.00 0.00 0.00 98 1017.2
20260905095354 10 120 0.0 0.0 0.00 0.00 0.00 98 1016.9
20260905094852 10 120 0.0 0.0 0.00 0.00 0.00 98 1017.0
20260905094559 10 120 0.0 0.0 0.00 0.00 0.00 98 1017.0
20260905093801 10 120 0.0 0.0 0.00 0.00 0.00 98 1017.0
20260905093509 10 120 0.0 0.0 0.00 0.00 0.00 98 1016.9
20260905092739 10 120 0.0 0.0 0.00 0.00 0.00 98 1016.7
20260905092210 10 120 0.0 0.0 0.00 0.00 0.00 98 1016.7
20260905091645 10 120 0.0 1.6 0.00 0.00 0.00 98 1016.8
20260905091142 10 120 0.0 1.6 0.00 0.00 0.00 98 1016.6
20260905090901 10 120 0.0 1.6 0.00 0.00 0.00 98 1016.6
20260905090130 10 120 0.0 1.6 0.00 0.00 0.00 98 1016.5
20260905085623 10 177 0.0 1.6 0.00 0.00 0.00 98 1016.5
20260905085119 10 177 0.0 1.6 0.00 0.00 0.00 98 1016.4
20260905084620 10 182 0.0 1.6 0.00 0.00 0.00 98 1016.4
20260905084057 10 182 0.0 1.6 0.00 0.00 0.00 98 1016.3
20260905083554 10 182 0.0 1.6 0.00 0.00 0.00 98 1016.4
20260905083318 10 255 0.0 0.0 0.00 0.00 0.00 98 1016.3
20260905082523 10 255 0.0 0.0 0.00 0.00 0.00 98 1016.2
20260905082020 10 255 0.0 0.0 0.00 0.00 0.00 98 1016.3
20260905081516 10 255 0.0 0.0 0.00 0.00 0.00 98 1016.1
20260905081508 10 255 0.0 0.0 0.00 0.00 0.00 98 1016.1
20260905080736 9 255 0.0 0.0 0.00 0.00 0.00 97 1016.2
20260905080618 9 255 0.0 0.0 0.00 0.00 0.00 97 1016.2
20260905075440 9 255 0.0 0.0 0.00 0.00 0.00 97 1016.2
20260905074915 9 255 0.0 0.0 0.00 0.00 0.00 98 1016.1
20260905074412 9 255 0.0 0.0 0.00 0.00 0.00 97 1016.1
20260905073845 9 255 0.0 1.6 0.00 0.00 0.00 97 1016.0
20260905073343 9 255 0.0 1.6 0.00 0.00 0.00 97 1015.9
20260905072820 8 255 0.0 0.0 0.00 0.00 0.00 97 1016.0
20260905072248 8 255 0.0 0.0 0.00 0.00 0.00 97 1016.0
20260905071747 8 255 0.0 0.0 0.00 0.00 0.00 97 1016.0
20260905071224 8 255 0.0 0.0 0.00 0.00 0.00 97 1016.0
20260905070716 8 255 0.0 0.0 0.00 0.00 0.00 97 1016.0
20260905070218 8 255 0.0 1.6 0.00 0.00 0.00 97 1015.9
20260905065713 8 255 0.0 1.6 0.00 0.00 0.00 97 1016.0
20260905065212 8 255 0.0 0.0 0.00 0.00 0.00 97 1015.9
20260905064708 8 255 0.0 0.0 0.00 0.00 0.00 97 1015.9
20260905064206 8 255 0.0 0.0 0.00 0.00 0.00 97 1015.9
20260905063658 8 255 0.0 0.0 0.00 0.00 0.00 97 1015.8
20260905063200 8 255 0.0 0.0 0.00 0.00 0.00 97 1015.8
20260905062905 8 255 0.0 0.0 0.00 0.00 0.00 97 1015.7
20260905062112 8 255 0.0 0.0 0.00 0.00 0.00 97 1015.8
20260905061839 8 255 0.0 0.0 0.00 0.00 0.00 97 1015.9
20260905061041 8 255 0.0 0.0 0.00 0.00 0.00 97 1016.0
20260905060540 8 255 0.0 1.6 0.00 0.00 0.00 97 1016.1
20260905060010 8 255 0.0 1.6 0.00 0.00 0.00 96 1016.1
20260905055736 8 255 0.0 1.6 0.00 0.00 0.00 96 1016.0
20260905055209 8 255 0.0 1.6 0.00 0.00 0.00 96 1016.2
20260905054438 8 255 0.0 0.0 0.00 0.00 0.00 96 1016.2
20260905053936 8 255 0.0 0.0 0.00 0.00 0.00 96 1016.2
20260905053434 8 255 0.0 0.0 0.00 0.00 0.00 96 1015.9
20260905053203 8 255 0.0 1.6 0.00 0.00 0.00 96 1016.0
20260905052431 8 255 0.0 1.6 0.00 0.00 0.00 96 1015.9
20260905051932 8 255 0.0 1.6 0.00 0.00 0.00 96 1016.0
20260905051403 8 255 0.0 0.0 0.00 0.00 0.00 96 1015.9
20260905050852 8 255 0.0 0.0 0.00 0.00 0.00 96 1015.9
20260905050351 9 255 0.0 0.0 0.00 0.00 0.00 96 1016.0
20260905045826 9 255 0.0 0.0 0.00 0.00 0.00 96 1016.0
20260905045528 8 255 0.0 0.0 0.00 0.00 0.00 96 1016.0
20260905044726 8 255 0.0 0.0 0.00 0.00 0.00 96 1016.0
20260905044200 8 255 0.0 0.0 0.00 0.00 0.00 96 1016.2
20260905043657 8 255 0.0 0.0 0.00 0.00 0.00 95 1016.1
20260905043150 8 255 0.0 0.0 0.00 0.00 0.00 95 1016.1
20260905042644 8 255 0.0 0.0 0.00 0.00 0.00 95 1016.1
20260905042635 8 255 0.0 0.0 0.00 0.00 0.00 96 1016.2
20260905041905 9 255 0.0 0.0 0.00 0.00 0.00 95 1016.2
20260905041612 9 255 0.0 0.0 0.00 0.00 0.00 95 1016.1
20260905040546 8 255 0.0 0.0 0.00 0.00 0.00 95 1016.1
20260905040013 8 255 0.0 1.6 0.00 0.00 0.00 94 1015.9
20260905035739 9 255 0.0 1.6 0.00 0.00 0.00 95 1016.0
20260905034942 9 255 0.0 0.0 0.00 0.00 0.00 94 1016.1
20260905034415 9 255 0.0 0.0 0.00 0.00 0.00 94 1016.2
20260905033904 9 255 0.0 0.0 0.00 0.00 0.00 94 1016.1
20260905033402 9 255 0.0 0.0 0.00 0.00 0.00 94 1016.0
20260905032858 9 255 0.0 0.0 0.00 0.00 0.00 94 1015.9
20260905032345 9 255 0.0 0.0 0.00 0.00 0.00 94 1016.0
20260905031830 10 257 0.0 0.0 0.00 0.00 0.00 94 1016.1
20260905031330 10 258 0.0 0.0 0.00 0.00 0.00 94 1016.2
20260905031102 10 257 0.0 0.0 0.00 0.00 0.00 95 1016.1
20260905030331 10 258 0.0 0.0 0.00 0.00 0.00 95 1016.1
20260905025822 10 258 1.6 3.2 0.00 0.00 0.00 95 1016.2
20260905025552 10 258 1.6 3.2 0.00 0.00 0.00 95 1016.2
20260905024822 10 258 0.0 3.2 0.00 0.00 0.00 94 1016.1
20260905024318 10 258 0.0 0.0 0.00 0.00 0.00 94 1016.0
20260905023757 10 258 0.0 0.0 0.00 0.00 0.00 94 1016.2
20260905023226 10 258 0.0 0.0 0.00 0.00 0.00 93 1016.0
20260905022725 10 257 0.0 0.0 0.00 0.00 0.00 93 1016.1
20260905022222 10 257 0.0 0.0 0.00 0.00 0.00 93 1016.1
20260905021722 10 258 0.0 0.0 0.00 0.00 0.00 93 1016.1
20260905021201 10 258 0.0 0.0 0.00 0.00 0.00 92 1016.0
20260905020647 10 258 0.0 0.0 0.00 0.00 0.00 93 1016.0
20260905020143 10 253 0.0 0.0 0.00 0.00 0.00 92 1016.1
20260905015640 11 253 0.0 3.2 0.00 0.00 0.00 92 1016.1
20260905015140 11 253 0.0 3.2 0.00 0.00 0.00 92 1016.1
20260905014639 11 253 0.0 1.6 0.00 0.00 0.00 92 1016.2
20260905014342 11 253 0.0 0.0 0.00 0.00 0.00 92 1016.0
20260905013604 11 253 0.0 0.0 0.00 0.00 0.00 92 1016.1
20260905013101 11 253 0.0 0.0 0.00 0.00 0.00 92 1016.1
20260905012601 11 253 0.0 0.0 0.00 0.00 0.00 92 1016.0
20260905012059 11 253 0.0 1.6 0.00 0.00 0.00 92 1015.9
20260905011533 11 253 1.6 1.6 0.00 0.00 0.00 92 1016.0
20260905011033 11 253 1.6 3.2 0.00 0.00 0.00 92 1016.0
20260905010527 11 253 0.0 3.2 0.00 0.00 0.00 92 1016.1
20260905010026 11 253 0.0 0.0 0.00 0.00 0.00 91 1016.1
20260905005522 12 253 0.0 3.2 0.00 0.00 0.00 91 1016.0
20260905005021 12 253 0.0 3.2 0.00 0.00 0.00 91 1015.9
20260905004726 12 133 0.0 1.6 0.00 0.00 0.00 91 1015.9
20260905003946 12 133 1.6 3.2 0.00 0.00 0.00 92 1015.9
20260905003445 12 151 1.6 3.2 0.00 0.00 0.00 92 1015.7
20260905002940 12 177 1.6 4.8 0.00 0.00 0.00 92 1015.5
20260905002438 12 103 1.6 6.4 0.00 0.00 0.00 92 1015.6
20260905001933 12 187 1.6 6.4 0.00 0.00 0.00 92 1015.6
20260905001422 12 241 0.0 1.6 0.00 0.00 0.00 90 1015.5
20260905000901 12 241 0.0 0.0 0.00 0.00 0.00 90 1015.4
20260905000348 12 241 0.0 0.0 0.00 0.00 0.00 90 1015.4
20260904235851 12 241 0.0 0.0 0.00 0.00 0.00 90 1015.4
20260904235345 12 241 0.0 0.0 0.00 0.00 0.00 89 1015.4
20260904235114 12 241 0.0 0.0 0.00 0.00 0.00 89 1015.4
20260904234334 12 241 0.0 1.6 0.00 0.00 0.00 90 1015.3
20260904233808 12 241 0.0 1.6 0.00 0.00 0.00 90 1015.3
20260904233533 12 241 0.0 0.0 0.00 0.00 0.00 89 1015.3
20260904232759 12 241 0.0 0.0 0.00 0.00 0.00 88 1015.1
20260904232737 13 241 0.0 0.0 0.00 0.00 0.00 88 1015.2
20260904231958 13 241 0.0 0.0 0.00 0.00 0.00 88 1015.2
20260904231222 13 241 0.0 1.6 0.00 0.00 0.00 88 1015.1
20260904230723 13 241 0.0 1.6 0.00 0.00 0.00 89 1015.0
20260904230451 13 241 0.0 1.6 0.00 0.00 0.00 88 1015.0
20260904225653 13 241 0.0 1.6 0.00 0.00 0.00 87 1014.8
20260904225134 13 241 0.0 0.0 0.00 0.00 0.00 86 1014.9
20260904224635 13 241 0.0 0.0 0.00 0.00 0.00 86 1014.7
20260904224134 13 241 0.0 1.6 0.00 0.00 0.00 86 1014.7
20260904223634 13 241 0.0 3.2 0.00 0.00 0.00 86 1014.7
20260904223131 14 241 1.6 3.2 0.00 0.00 0.00 86 1014.5
20260904222620 14 235 1.6 3.2 0.00 0.00 0.00 85 1014.4
20260904222121 14 187 1.6 3.2 0.00 0.00 0.00 84 1014.3
20260904221553 15 182 0.0 3.2 0.00 0.00 0.00 83 1014.5
20260904221320 15 243 0.0 0.0 0.00 0.00 0.00 81 1014.4
20260904220546 15 243 0.0 0.0 0.00 0.00 0.00 81 1014.2
20260904220035 15 243 0.0 0.0 0.00 0.00 0.00 81 1014.2
20260904215508 15 243 0.0 0.0 0.00 0.00 0.00 80 1014.0
20260904214939 16 243 0.0 0.0 0.00 0.00 0.00 79 1014.2
20260904214433 16 243 0.0 0.0 0.00 0.00 0.00 77 1014.2
20260904213910 16 243 0.0 0.0 0.00 0.00 0.00 76 1014.3
20260904213608 16 243 0.0 0.0 0.00 0.00 0.00 77 1014.2
20260904212832 16 243 0.0 0.0 0.00 0.00 0.00 76 1014.3
20260904212312 17 243 0.0 0.0 0.00 0.00 0.00 74 1014.2
20260904211810 17 243 0.0 0.0 0.00 0.00 0.00 74 1014.2
20260904211308 17 243 0.0 0.0 0.00 0.00 0.00 74 1014.3
20260904210808 18 243 0.0 1.6 0.00 0.00 0.00 71 1014.1
20260904210302 18 243 1.6 3.2 0.00 0.00 0.00 72 1014.0
20260904205800 18 243 1.6 3.2 0.00 0.00 0.00 71 1014.1
20260904205231 18 243 1.6 3.2 0.00 0.00 0.00 70 1014.0
20260904204703 19 243 1.6 3.2 0.00 0.00 0.00 68 1014.0
20260904204201 19 243 1.6 3.2 0.00 0.00 0.00 64 1013.9
20260904203654 20 239 1.6 4.8 0.00 0.00 0.00 60 1013.8
20260904203152 20 226 1.6 4.8 0.00 0.00 0.00 58 1013.8
20260904202650 20 241 1.6 6.4 0.00 0.00 0.00 57 1013.8
20260904202122 21 235 1.6 6.4 0.00 0.00 0.00 55 1013.7
20260904201820 21 250 1.6 4.8 0.00 0.00 0.00 54 1013.9
20260904201048 21 238 1.6 4.8 0.00 0.00 0.00 52 1013.8
20260904200533 21 254 1.6 6.4 0.00 0.00 0.00 54 1013.6
20260904200036 21 270 1.6 6.4 0.00 0.00 0.00 55 1013.7
20260904195518 21 267 3.2 6.4 0.00 0.00 0.00 51 1013.7
20260904195248 21 231 1.6 6.4 0.00 0.00 0.00 53 1013.6
20260904194519 21 259 0.0 3.2 0.00 0.00 0.00 53 1013.6
20260904193954 21 141 1.6 6.4 0.00 0.00 0.00 53 1013.6
20260904193427 21 150 1.6 6.4 0.00 0.00 0.00 51 1013.5
20260904192915 21 182 1.6 6.4 0.00 0.00 0.00 52 1013.6
20260904192351 21 344 1.6 4.8 0.00 0.00 0.00 54 1013.5
20260904191828 21 339 1.6 4.8 0.00 0.00 0.00 54 1013.4
20260904191324 20 270 1.6 4.8 0.00 0.00 0.00 55 1013.3
20260904190826 20 115 1.6 6.4 0.00 0.00 0.00 53 1013.4
20260904190300 20 199 1.6 6.4 0.00 0.00 0.00 53 1013.3
20260904185734 20 145 0.0 6.4 0.00 0.00 0.00 56 1013.1
20260904185233 20 158 0.0 0.0 0.00 0.00 0.00 56 1013.5
20260904184733 20 43 0.0 0.0 0.00 0.00 0.00 57 1013.4
20260904184232 20 43 0.0 0.0 0.00 0.00 0.00 56 1013.4
20260904183731 20 40 0.0 0.0 0.00 0.00 0.00 57 1013.4
20260904183228 20 210 0.0 3.2 0.00 0.00 0.00 56 1013.3
20260904182725 20 222 1.6 3.2 0.00 0.00 0.00 56 1013.5
20260904182700 19 89 1.6 3.2 0.00 0.00 0.00 58 1013.5
20260904181632 19 153 1.6 6.4 0.00 0.00 0.00 57 1013.7
20260904181402 19 187 3.2 6.4 0.00 0.00 0.00 56 1013.7
20260904180624 19 168 3.2 6.4 0.00 0.00 0.00 56 1013.7
20260904180121 20 217 3.2 6.4 0.00 0.00 0.00 61 1013.9
20260904175553 20 253 3.2 11.3 0.00 0.00 0.00 60 1013.8
20260904175051 20 256 3.2 11.3 0.00 0.00 0.00 59 1013.9
20260904174544 20 262 1.6 8.0 0.00 0.00 0.00 59 1013.9
20260904174040 20 22 1.6 4.8 0.00 0.00 0.00 59 1013.9
20260904173530 19 216 1.6 8.0 0.00 0.00 0.00 59 1013.8
20260904173300 19 164 1.6 8.0 0.00 0.00 0.00 59 1013.8
20260904172526 19 274 3.2 8.0 0.00 0.00 0.00 59 1014.0
20260904172014 19 138 3.2 8.0 0.00 0.00 0.00 57 1013.9
20260904171509 19 250 3.2 8.0 0.00 0.00 0.00 58 1013.8
20260904170959 20 223 3.2 4.8 0.00 0.00 0.00 60 1013.9
20260904170726 20 237 3.2 11.3 0.00 0.00 0.00 57 1014.1
20260904165953 20 162 3.2 11.3 0.00 0.00 0.00 57 1014.2
20260904165434 20 187 1.6 8.0 0.00 0.00 0.00 58 1014.4
20260904165425 20 280 1.6 8.0 0.00 0.00 0.00 59 1014.3
20260904165036 20 351 3.2 6.4 0.00 0.00 0.00 59 1014.5
20260904163924 19 269 3.2 8.0 0.00 0.00 0.00 58 1014.5
20260904163427 20 195 3.2 6.4 0.00 0.00 0.00 57 1014.5
20260904162900 20 246 3.2 9.7 0.00 0.00 0.00 58 1014.5
20260904162358 20 235 3.2 9.7 0.00 0.00 0.00 57 1014.6
20260904161846 19 295 3.2 9.7 0.00 0.00 0.00 57 1014.5
20260904161343 20 253 4.8 9.7 0.00 0.00 0.00 56 1014.6
20260904161319 20 255 4.8 9.7 0.00 0.00 0.00 57 1014.6
20260904160249 20 151 3.2 9.7 0.00 0.00 0.00 55 1014.6
20260904155724 20 195 3.2 9.7 0.00 0.00 0.00 54 1014.7
20260904155155 20 213 1.6 8.0 0.00 0.00 0.00 55 1014.7
20260904154647 20 224 1.6 6.4 0.00 0.00 0.00 59 1014.6
20260904154118 20 113 3.2 11.3 0.00 0.00 0.00 58 1014.6
20260904153616 20 237 4.8 14.5 0.00 0.00 0.00 56 1014.7
20260904153104 20 278 4.8 14.5 0.00 0.00 0.00 58 1014.7
20260904152604 20 236 4.8 12.9 0.00 0.00 0.00 58 1014.8
20260904152059 20 216 4.8 12.9 0.00 0.00 0.00 57 1014.9
20260904151555 20 268 4.8 14.5 0.00 0.00 0.00 56 1014.9
20260904151044 19 240 4.8 14.5 0.00 0.00 0.00 57 1015.0
20260904150539 19 206 4.8 9.7 0.00 0.00 0.00 59 1015.0
20260904150040 19 297 4.8 9.7 0.00 0.00 0.00 59 1015.0
20260904145533 19 280 4.8 12.9 0.00 0.00 0.00 59 1015.0
20260904145033 19 289 4.8 12.9 0.00 0.00 0.00 59 1015.1
20260904144531 19 301 3.2 11.3 0.00 0.00 0.00 58 1015.1
20260904144033 19 280 3.2 11.3 0.00 0.00 0.00 58 1015.0
20260904143509 19 264 3.2 14.5 0.00 0.00 0.00 57 1015.2
20260904143224 19 201 1.6 12.9 0.00 0.00 0.00 60 1015.1
20260904142722 19 320 1.6 8.0 0.00 0.00 0.00 60 1015.1
20260904141951 19 294 1.6 6.4 0.00 0.00 0.00 62 1015.2
20260904141448 19 262 3.2 8.0 0.00 0.00 0.00 57 1015.2
20260904140918 19 238 4.8 8.0 0.00 0.00 0.00 60 1015.4
20260904140907 19 159 3.2 8.0 0.00 0.00 0.00 59 1015.5
20260904135844 19 307 3.2 9.7 0.00 0.00 0.00 59 1015.5
20260904135328 19 253 3.2 9.7 0.00 0.00 0.00 59 1015.7
20260904135058 19 144 3.2 9.7 0.00 0.00 0.00 58 1015.9
20260904134300 19 125 3.2 9.7 0.00 0.00 0.00 56 1015.9
20260904133757 19 29 3.2 9.7 0.00 0.00 0.00 57 1015.9
20260904133515 18 148 3.2 8.0 0.00 0.00 0.00 65 1016.0
20260904133015 18 133 3.2 8.0 0.00 0.00 0.00 59 1016.1
20260904132223 18 151 3.2 14.5 0.00 0.00 0.00 60 1016.1
20260904131722 18 126 3.2 14.5 0.00 0.00 0.00 60 1016.1
20260904131438 18 113 3.2 11.3 0.00 0.00 0.00 63 1016.1
20260904130649 18 187 3.2 11.3 0.00 0.00 0.00 63 1016.3